AirNav   TITAN Aviation Fuels
 
 1474 users online  

VT52 Shaw Meadow Airport
Milton, Vermont, USA

GOING TO MILTON?


FAA INFORMATION EFFECTIVE 02 DECEMBER 2021

Location

FAA Identifier: VT52
Lat/Long: 44-38-36.1670N 073-11-15.4730W
44-38.602783N 073-11.257883W
44.6433797,-73.1876314
(estimated)
Elevation: 230 ft. / 70 m (estimated)
Variation: 16W (1990)
From city: 4 miles W of MILTON, VT
Time zone: UTC -5 (UTC -4 during Daylight Saving Time)
Zip code: 05468

Airport Operations

Airport use: Private use. Permission required prior to landing
Activation date: 02/1993
Control tower: no
ARTCC: BOSTON CENTER
FSS: BURLINGTON FLIGHT SERVICE STATION
Attendance: UNATNDD
Wind indicator: yes
Segmented circle: yes

Airport Communications

WX ASOS at BTV (10 nm S): 123.8 (802-657-4490)
WX ASOS at PBG (12 nm W): 132.225 (518-324-5539)
WX AWOS-3 at FSO (18 nm N): 119.025 (802-868-9941)

Nearby radio navigation aids

VOR radial/distance  VOR name  Freq  Var
BTVr014/14.8BURLINGTON VOR/DME117.5015W

 
NDB name  Hdg/Dist  Freq  Var  ID
HERRO037/7.238215WBT -... -

Airport Services

Runway Information

Runway 1/19

Dimensions: 2150 x 150 ft. / 655 x 46 m
Surface: turf
RUNWAY 1  RUNWAY 19
Traffic pattern: leftright
Displaced threshold: 300 ft.
DSPLCD THLD MKD WITH ORANGE CONES.
50 ft.

Airport Ownership and Management from official FAA records

Ownership: Privately-owned
Owner: ADAM L. ALPERT
70 LIONHEART DR
MILTON, VT 05468
Phone 802-893-2480
Manager: ADAM L. ALPERT
70 LIONHEART DR
MILTON, VT 05468
Phone 802-861-8501

Airport Operational Statistics

Aircraft based on the field: 5
Single engine airplanes: 3
Multi engine airplanes: 1
Helicopters: 1
    

Additional Remarks

FOR CD CTC BURLINGTON APCH AT 802-657-4401, WHEN APCH CLSD CTC BOSTON ARTCC AT 603-879-6859.

Instrument Procedures

There are no published instrument procedures at VT52.

Some nearby airports with instrument procedures:

KBTV - Burlington International Airport (10 nm S)
KPBG - Plattsburgh International Airport (12 nm W)
KFSO - Franklin County State Airport (18 nm N)
KMVL - Morrisville-Stowe State Airport (25 nm E)
KMPV - Edward F Knapp State Airport (38 nm SE)
 
Loc | Ops | Rwys | IFR | FBO | Links
Com | Nav | Svcs | Stats | Notes
Area around VT52 (Shaw Meadow Airport)
 
Road maps at: MapQuest Bing Google
 
Aerial photo
WARNING: Photo may not be current or correct
Aerial photo of VT52 (Shaw Meadow Airport)
Do you have a better or more recent aerial photo of Shaw Meadow Airport that you would like to share? If so, please send us your photo.

 
Sectional chart

 
Airport distance calculator
Flying to Shaw Meadow Airport? Find the distance to fly.

From to VT52

Sunrise and sunset
Times for 03-Dec-2021
 Local
(UTC-5)
 Zulu
(UTC)
Morning civil twilight06:4011:40
Sunrise07:1312:13
Sunset16:1221:12
Evening civil twilight16:4521:45

Current date and time
Zulu (UTC)  03-Dec-2021 20:06:07
Local (UTC-5)  03-Dec-2021 15:06:07
 
METAR
KBTV 
11nm S 
031954Z 31007G17KT 10SM CLR 00/M17 A2991 RMK AO2 PK WND 34027/1906 SLP133 T00001167
KPBG 
12nm W 
031953Z AUTO 26006KT 10SM CLR M01/M19 A2993 RMK AO2 SLP137 T10061189
KFSO 
18nm N 
031955Z AUTO 28008G14KT 230V320 10SM CLR M01/M13 A2992 RMK AO2 T10131130
TAF
KBTV 
11nm S 
031740Z 0318/0418 30012G21KT P6SM FEW050 FM032300 29007KT P6SM SKC FM041000 00000KT P6SM SCT120 FM041500 17008KT P6SM SCT050
KPBG 
12nm W 
031740Z 0318/0418 30012G22KT P6SM SKC FM032300 29008KT P6SM SKC FM041000 00000KT P6SM SCT100 FM041500 17006KT P6SM BKN070
NOTAMs
Click for the latest NOTAMs
NOTAMs are issued by the DoD/FAA and will open in a separate window not controlled by AirNav.

 

 
 

Would you like to see your business listed on this page?

 If your business provides an interesting product or service to pilots, flight crews, aircraft, or users of the Shaw Meadow Airport, you should consider listing it here.  To start the listing process, click on the button below
 
Add a business
 

Other Pages about Shaw Meadow Airport

Update a link
 
Copyright © AirNav, LLC. All rights reserved. Privacy Policy  Contact